Skip Page Navigation
NASA JPL Caltech
NASA Logo - Jet Propulsion Laboratory + View the NASA Portal
+ Center for Near-Earth Object Studies
JPL Home Earth Solar System Stars & Galaxies Technology
JPL Solar System Dynamics
BODIES ORBITS EPHEMERIDES TOOLS PHYSICAL DATA DISCOVERY FAQ SITE MAP
IMPORTANT: The SSD Announcement email list is now available. Major changes are coming in the near future, including possible hostname and/or URL changes. To be notified of such changes, subscribe to this email list.

Please visit this page for more details.


JPL Small-Body Database Browser
Search: [ help ]  
97110 (1999 VB82)
Classification: Main-belt Asteroid          SPK-ID: 2097110
Ephemeris | Orbit Diagram | Orbital Elements | Mission Design | Physical Parameters | Discovery Circumstances | Close-Approach Data ]

[ show orbit diagram ]
Orbital Elements at Epoch 2458600.5 (2019-Apr-27.0) TDB
Reference: JPL 16 (heliocentric ecliptic J2000)
 Element Value Uncertainty (1-sigma)   Units 
e .121735444976359 5.417e-08  
a 2.514981243168131 1.3854e-08 au
q 2.208818882423862 1.3651e-07 au
i 1.503106093382023 5.7176e-06 deg
node 63.19751777309727 0.00017743 deg
peri 298.3830013362318 0.00017872 deg
M 338.0425517455148 2.2153e-05 deg
tp 2458689.354600726204
(2019-Jul-24.85460073)
8.9982e-05 TDB
period 1456.802078761569
3.99
1.2038e-05
3.296e-08
d
yr
n .2471166160787174 2.042e-09 deg/d
Q 2.8211436039124 1.5541e-08 au
  Orbit Determination Parameters
   # obs. used (total)      591  
   data-arc span      6803 days (18.63 yr)  
   first obs. used      1999-10-03  
   last obs. used      2018-05-19  
   planetary ephem.      DE431  
   SB-pert. ephem.      SB431-N16  
   condition code      0  
   norm. resid. RMS      .57395  
   source      ORB  
   producer      Otto Matic  
   solution date      2018-May-31 15:46:08  

Additional Information
 Earth MOID = 1.20545 au 
 Jupiter MOID = 2.61851 au 
 T_jup = 3.449 
[ show covariance matrix ]

Ephemeris | Orbit Diagram | Orbital Elements | Mission Design | Physical Parameters | Discovery Circumstances | Close-Approach Data ]

Physical Parameter Table
Parameter Symbol Value Units Sigma Reference Notes
absolute magnitude H 16.1   n/a MPO302545  

97110 (1999 VB82)          Discovered 1999-Nov-05 by LINEAR at Socorro
Reference: 20050224/Numbers.arcLast Updated: 2005-02-28

[ show close-approach data ]
Ephemeris | Orbit Diagram | Orbital Elements | Mission Design | Physical Parameters | Discovery Circumstances | Close-Approach Data ]
ABOUT SSD CREDITS/AWARDS PRIVACY/COPYRIGHT GLOSSARY LINKS
FirstGov 2019-Oct-19 16:20 UT
(server date/time)  
NASA Home Page
Site Manager:   Ryan S. Park
Webmaster  Alan B. Chamberlin